Regional Weather Roundup
Issued by NWS Cleveland, OH

Home | Current Version | Previous Version | Graphics & Text | Print | Product List | Glossary On
Versions: 1 2 3 4 5 6 7 8 9 10 11 12 13 14 15 16 17 18 19 20 21 22 23 24 25 26 27 28 29 30 31 32 33 34 35 36 37 38 39 40 41 42 43 44 45 46 47 48 49 50
000
ASUS41 KCLE 200502
RWRCLE
OHIO REGIONAL WEATHER ROUNDUP
NATIONAL WEATHER SERVICE CLEVELAND, OH
100 AM EDT WED AUG 20 2014

NOTE: "FAIR" INDICATES FEW OR NO CLOUDS BELOW 12,000 FEET WITH NO
SIGNIFICANT WEATHER AND/OR OBSTRUCTIONS TO VISIBILITY.

OHZ001>008-015>018-024>027-034-035-043-044-200600-
   NORTHWEST OHIO

CITY           SKY/WX    TMP DP  RH WIND       PRES   REMARKS
DEFIANCE       CLOUDY    70  65  84 S7        29.80F
FINDLAY        CLOUDY    69  67  93 SE5       29.80F
TOLEDO EXPRESS MOCLDY    67  65  93 CALM      29.79F
TOLEDO EXEC    CLOUDY    68  64  87 S5        29.81F
LIMA           MOCLDY    69  66  90 SE6       29.81F
$$

OHZ009>014-019>023-028>033-038-089-200600-
   NORTHEAST OHIO

CITY           SKY/WX    TMP DP  RH WIND       PRES   REMARKS
CLE-HOPKINS    LGT RAIN  68  65  90 S9        29.86F
CLE-LAKEFRONT  CLOUDY    69  65  86 S13       29.82F
CUY CO. ARPT   NOT AVBL
LORAIN-ELYRIA  LGT RAIN  71  66  84 S6        29.84F
ASHTABULA      CLOUDY    65  64  97 SE9       29.87F
AKRON-CANTON   TSTM      67  63  87 SE5       29.90F
WOOSTER        CLOUDY    67  64  90 SE5       29.87F
MANSFIELD      CLOUDY    69  67  93 S7        29.86F
YOUNGSTOWN     TSTM      65  63  93 SE5       29.91S FOG
$$

OHZ042-051>053-060>062-070>072-077>081-200600-
  SOUTHWEST OHIO

CITY           SKY/WX    TMP DP  RH WIND       PRES   REMARKS
CINC-COVINGTON TSTM      75  69  81 S8        29.85S
CINC-LUNKEN    CLOUDY    75  69  81 CALM      29.84S
HAMILTON       PTCLDY    73  70  90 CALM      29.85S FOG
DAYTON         MOCLDY    77  69  76 S9        29.84F
WRIGHT-PAT AFB MOCLDY    74  68  81 S5        29.83F
DAYTON GENERAL MOCLDY    74  68  81 S6        29.84F
WILMINGTON     CLOUDY    72  67  84 S6        29.86S
$$

OHZ036-037-039>041-045>050-054>059-063>069-073>076-082>088-200600-
  CENTRAL AND SOUTHEAST OHIO

CITY           SKY/WX    TMP DP  RH WIND       PRES   REMARKS
COLUMBUS       MOCLDY    79  68  69 SW5       29.84S
OSU AIRPORT    CLOUDY    73  67  81 E3        29.85S
BOLTON FIELD   NOT AVBL
RICKENBACK AFB MOCLDY    75  65  70 SW3       29.84S
NEWARK         MOCLDY    73  70  90 SW3       29.85S FOG
MARION         CLOUDY    70  63  78 SE6       29.84F
LANCASTER      MOCLDY    76  69  79 S3        29.86R
ZANESVILLE     MOCLDY    74  69  85 S8        29.86F
NEW PHILLY     TSTM      66  64  93 MISG      29.90S FOG
$$


USA.gov is the U.S. government's official web portal to all federal, state and local government web resources and services.